• In Netherlands
  • List of Countries
  • For 7 days
  • Water Temperature
  • Satellite Maps
  • Weather Map
  • Weather Widgets
  • user-avatar
    Login

    Hourly Weather Idzhewan

    Today, 23 February, Thursday

    Time Temperature Precipitation Wind Pressure Humidity
    00:00 -1°C° 0 mm 2 mps 691 mmHg 85%
    01:00 -1°C° 0 mm 2 mps 691 mmHg 85%
    02:00 -1°C° 0 mm 2 mps 691 mmHg 86%
    03:00 +1°C° 0 mm 3 mps 691 mmHg 88%
    04:00 +1°C° 0.3 mm 2 mps 691 mmHg 89%
    05:00 +1°C° 0.3 mm 2 mps 691 mmHg 91%
    06:00 +1°C° 0.3 mm 2 mps 692 mmHg 93%
    07:00 +2°C° 0.1 mm 2 mps 692 mmHg 90%
    08:00 +2°C° 0.1 mm 2 mps 693 mmHg 87%
    09:00 +4°C° 0 mm 2 mps 693 mmHg 84%
    10:00 +4°C° 0 mm 2 mps 693 mmHg 80%
    11:00 +5°C° 0 mm 2 mps 693 mmHg 77%
    12:00 +6°C° 0 mm 2 mps 693 mmHg 73%
    13:00 +6°C° 0 mm 2 mps 693 mmHg 72%
    14:00 +6°C° 0 mm 2 mps 693 mmHg 71%
    15:00 +6°C° 0 mm 2 mps 693 mmHg 70%
    16:00 +5°C° 0 mm 2 mps 693 mmHg 74%
    17:00 +3°C° 0 mm 2 mps 693 mmHg 78%
    18:00 +2°C° 0 mm 1 mps 693 mmHg 83%
    19:00 +2°C° 0 mm 1 mps 694 mmHg 84%
    20:00 -1°C° 0 mm 2 mps 694 mmHg 84%
    21:00 -1°C° 0 mm 2 mps 694 mmHg 85%
    22:00 -1°C° 0 mm 2 mps 694 mmHg 86%
    23:00 -1°C° 0 mm 2 mps 695 mmHg 86%

    Tomorrow, 24 February, Friday

    Time Temperature Precipitation Wind Pressure Humidity
    00:00 -2°C° 0 mm 2 mps 695 mmHg 86%
    01:00 -1°C° 0 mm 2 mps 695 mmHg 86%
    02:00 -1°C° 0 mm 2 mps 695 mmHg 86%
    03:00 -1°C° 0 mm 2 mps 695 mmHg 86%
    04:00 -1°C° 0 mm 2 mps 695 mmHg 86%
    05:00 -2°C° 0 mm 2 mps 695 mmHg 86%
    06:00 -2°C° 0 mm 2 mps 695 mmHg 86%
    07:00 +1°C° 0 mm 2 mps 695 mmHg 83%
    08:00 +2°C° 0 mm 2 mps 696 mmHg 80%
    09:00 +4°C° 0 mm 2 mps 696 mmHg 77%
    10:00 +6°C° 0 mm 2 mps 696 mmHg 74%
    11:00 +7°C° 0 mm 2 mps 696 mmHg 72%
    12:00 +9°C° 0 mm 2 mps 696 mmHg 69%
    13:00 +9°C° 0 mm 2 mps 696 mmHg 70%
    14:00 +9°C° 0 mm 2 mps 696 mmHg 70%
    15:00 +9°C° 0 mm 2 mps 695 mmHg 71%
    16:00 +7°C° 0 mm 2 mps 696 mmHg 76%
    17:00 +6°C° 0 mm 1 mps 696 mmHg 81%
    18:00 +4°C° 0 mm 1 mps 696 mmHg 86%
    19:00 +4°C° 0 mm 1 mps 696 mmHg 86%
    20:00 +2°C° 0 mm 2 mps 697 mmHg 85%
    21:00 +2°C° 0 mm 2 mps 697 mmHg 85%
    22:00 +2°C° 0 mm 2 mps 697 mmHg 84%
    23:00 +1°C° 0 mm 2 mps 697 mmHg 84%

    Day after tomorrow, 25 February, Saturday

    Time Temperature Precipitation Wind Pressure Humidity
    00:00 +1°C° 0 mm 2 mps 698 mmHg 83%
    01:00 +1°C° 0 mm 2 mps 698 mmHg 83%
    02:00 +1°C° 0 mm 2 mps 698 mmHg 83%
    03:00 +1°C° 0 mm 2 mps 698 mmHg 83%
    04:00 +1°C° 0 mm 2 mps 698 mmHg 83%
    05:00 -1°C° 0 mm 2 mps 698 mmHg 83%
    06:00 -1°C° 0 mm 2 mps 698 mmHg 83%
    07:00 +2°C° 0 mm 2 mps 698 mmHg 80%
    08:00 +4°C° 0 mm 2 mps 698 mmHg 77%
    09:00 +6°C° 0 mm 2 mps 698 mmHg 74%
    10:00 +8°C° 0 mm 1 mps 698 mmHg 72%
    11:00 +9°C° 0 mm 1 mps 698 mmHg 69%
    12:00 +11°C° 0 mm 1 mps 697 mmHg 67%
    13:00 +11°C° 0 mm 1 mps 697 mmHg 68%
    14:00 +11°C° 0 mm 1 mps 696 mmHg 68%
    15:00 +11°C° 0 mm 1 mps 696 mmHg 69%
    16:00 +9°C° 0 mm 1 mps 696 mmHg 73%
    17:00 +7°C° 0 mm 1 mps 696 mmHg 78%
    18:00 +5°C° 0 mm 1 mps 695 mmHg 83%
    19:00 +4°C° 0 mm 1 mps 696 mmHg 82%
    20:00 +3°C° 0 mm 2 mps 696 mmHg 81%
    21:00 +2°C° 0 mm 2 mps 696 mmHg 80%
    22:00 +2°C° 0 mm 2 mps 696 mmHg 79%
    23:00 +2°C° 0 mm 2 mps 696 mmHg 78%

    26 February, Sunday

    Time Temperature Precipitation Wind Pressure Humidity
    00:00 +2°C° 0 mm 2 mps 696 mmHg 77%
    01:00 +2°C° 0 mm 2 mps 695 mmHg 77%
    02:00 +2°C° 0 mm 2 mps 695 mmHg 77%
    03:00 +2°C° 0 mm 2 mps 695 mmHg 77%
    04:00 +1°C° 0 mm 2 mps 695 mmHg 77%
    05:00 0°C° 0 mm 3 mps 695 mmHg 77%
    06:00 0°C° 0 mm 3 mps 694 mmHg 77%
    07:00 +2°C° 0 mm 3 mps 694 mmHg 74%
    08:00 +4°C° 0 mm 3 mps 694 mmHg 71%
    09:00 +5°C° 0 mm 3 mps 694 mmHg 68%
    10:00 +8°C° 0 mm 3 mps 694 mmHg 66%
    11:00 +9°C° 0 mm 3 mps 694 mmHg 64%
    12:00 +11°C° 0 mm 3 mps 693 mmHg 62%
    13:00 +12°C° 0 mm 2 mps 693 mmHg 63%
    14:00 +12°C° 0 mm 2 mps 693 mmHg 64%
    15:00 +12°C° 0 mm 2 mps 693 mmHg 65%
    16:00 +9°C° 0 mm 2 mps 693 mmHg 71%
    17:00 +7°C° 0 mm 2 mps 693 mmHg 77%
    18:00 +5°C° 0 mm 2 mps 693 mmHg 83%
    19:00 +6°C° 0 mm 1 mps 694 mmHg 83%
    20:00 +5°C° 0 mm 1 mps 694 mmHg 84%
    21:00 +5°C° 0 mm 1 mps 695 mmHg 84%
    22:00 +5°C° 0 mm 1 mps 695 mmHg 84%
    23:00 +5°C° 0 mm 1 mps 695 mmHg 85%

    27 February, Monday

    Time Temperature Precipitation Wind Pressure Humidity
    00:00 +4°C° 0 mm 1 mps 695 mmHg 86%
    01:00 +4°C° 0.2 mm 1 mps 696 mmHg 87%
    02:00 +4°C° 0.2 mm 1 mps 696 mmHg 89%
    03:00 +4°C° 0.2 mm 1 mps 696 mmHg 90%
    04:00 +4°C° 0.3 mm 1 mps 696 mmHg 92%
    05:00 +4°C° 0.3 mm 1 mps 696 mmHg 93%
    06:00 +3°C° 0.3 mm 1 mps 697 mmHg 94%
    07:00 +4°C° 0.1 mm 1 mps 697 mmHg 92%
    08:00 +4°C° 0.1 mm 1 mps 697 mmHg 91%
    09:00 +5°C° 0.1 mm 1 mps 697 mmHg 89%
    10:00 +5°C° 0 mm 1 mps 697 mmHg 87%
    11:00 +6°C° 0 mm 1 mps 696 mmHg 85%
    12:00 +7°C° 0 mm 1 mps 696 mmHg 83%
    13:00 +7°C° 0 mm 1 mps 696 mmHg 82%
    14:00 +7°C° 0 mm 1 mps 695 mmHg 82%
    15:00 +8°C° 0 mm 1 mps 695 mmHg 81%
    16:00 +6°C° 0 mm 1 mps 695 mmHg 85%
    17:00 +5°C° 0 mm 1 mps 695 mmHg 89%
    18:00 +3°C° 0 mm 0 mps 695 mmHg 92%
    19:00 +3°C° 0 mm 0 mps 695 mmHg 93%
    20:00 +2°C° 0 mm 0 mps 695 mmHg 93%
    21:00 +1°C° 0 mm 0 mps 695 mmHg 93%
    22:00 +1°C° 0 mm 0 mps 695 mmHg 93%
    23:00 +2°C° 0 mm 1 mps 695 mmHg 92%

    28 February, Tuesday

    Time Temperature Precipitation Wind Pressure Humidity
    00:00 +2°C° 0 mm 1 mps 695 mmHg 92%
    01:00 +2°C° 0 mm 1 mps 695 mmHg 91%
    02:00 +2°C° 0 mm 1 mps 695 mmHg 90%
    03:00 +2°C° 0 mm 1 mps 695 mmHg 90%
    04:00 +2°C° 0 mm 1 mps 695 mmHg 89%
    05:00 +2°C° 0 mm 1 mps 695 mmHg 89%
    06:00 +2°C° 0 mm 1 mps 695 mmHg 88%
    07:00 +4°C° 0 mm 1 mps 695 mmHg 84%
    08:00 +5°C° 0 mm 1 mps 696 mmHg 79%
    09:00 +7°C° 0 mm 1 mps 696 mmHg 75%
    10:00 +8°C° 0 mm 1 mps 696 mmHg 72%
    11:00 +10°C° 0 mm 1 mps 696 mmHg 69%
    12:00 +11°C° 0 mm 1 mps 696 mmHg 66%
    13:00 +11°C° 0 mm 1 mps 696 mmHg 66%
    14:00 +11°C° 0 mm 1 mps 695 mmHg 66%
    15:00 +11°C° 0 mm 1 mps 695 mmHg 66%
    16:00 +9°C° 0 mm 1 mps 695 mmHg 73%
    17:00 +7°C° 0 mm 1 mps 695 mmHg 80%
    18:00 +5°C° 0 mm 1 mps 695 mmHg 87%
    19:00 +5°C° 0 mm 1 mps 696 mmHg 87%
    20:00 +5°C° 0 mm 1 mps 696 mmHg 87%
    21:00 +5°C° 0 mm 1 mps 696 mmHg 86%
    22:00 +4°C° 0 mm 1 mps 697 mmHg 86%
    23:00 +4°C° 0 mm 1 mps 697 mmHg 85%
    Show more